Время (UTC), дата Ветер
(°,м/с) 
Видим.   Явления Облачность Т
(°С)
Тd
(°С)
f(%) Тe
(°С)
Pmin
(гПа)
dP
(гПа)
Po
(мм)
O2
(г/м3)
Тmin Tmax R s Состояние
почвы
00 01.03.11 160 (Ю) 10 км    ясно 
-22.3 -24.1 84 -23  1046.6  -1.2  772  341           
03 01.03.11 170 (Ю) 10 км  [диам. изморози 1 мм]  ясно 
-23.9 -25.7 85 -27  1045.8  -0.8  772  343           
06 01.03.11 тихо ()   10 км  [диам. изморози 2 мм]  5/0 верхняя 
[Ci fib]
-21.1 -22.9 85 -21  1044.4  -1.2  771  338  -24.1         
09 01.03.11 170 (Ю) >10 км  [диам. изморози 3 мм]  ясно 
-13.3 -18.5 65 -13  1042.2  -1.6  770  327           
12 01.03.11 270 (З) >10 км    3/0 верхняя 
[Ci fib]
-10.9 -18.2 55 -11  1040.2  -1.9  768  324           
15 01.03.11 160 (Ю) 10 км    4/0 средняя, верхняя 
[Ac lent|Ci fib]
-15.9 -20.1 70 -16  1038.9  -1.6  767  330           
18 01.03.11 170 (Ю) 10 км    ясно 
-16.3 -19.7 75 -16  1038.2  -0.7  766  330    -10.7       
21 01.03.11 тихо ()   10 км    ясно 
-18 -19.9 85 -18  1036.6  -1.6  765  332           
00 02.03.11 тихо ()   10 км    6/0 средняя 
[Ac und]
-23.7 -25.5 85 -24  1036.6  -0.4  765  339           
03 02.03.11 тихо ()   10 км  {снег}  10/6 600 м средняя 
[Sc|Ac cast]
-16.3 -18.2 85 -16  1035.3  -0.9  764  329           
06 02.03.11 320 (СЗ) >10 км  слаб. снег  10/10 600 м 
[Sc]
-15.3 -18 80 -15  1035.1  -0.1  764  328  -16.9    0.0     
09 02.03.11 300 (СЗ) >10 км  {снег}  ясно 
-11.7 -17 65 -12  1034  -0.8  764  323           
12 02.03.11 320 (СЗ) >10 км  {снег}  ясно 
-9 -15.7 58 -9  1032.5  -1.3  763  319           
15 02.03.11 290 (З) 10 км    4/0 средняя 
[Ac lent]
-11.1 -16.4 65 -11  1032.4  -0.3  762  322           
18 02.03.11 тихо ()   10 км    9/0 средняя 
[Ac trans]
-14.6 -18.1 74 -15  1032.1  -0.5  762  326    -9  0.0     
21 02.03.11 тихо ()   10 км  слаб. снег  10/10 600 м 
[Sc]
-13.6 -16.3 80 -14  1030.9  -1.1  761  324           
00 03.03.11 тихо ()   10 км  слаб. снег  10/10 600 м 
[Sc]
-16.5 -17.8 89 -17  1031.4  0.3  761  328           
03 03.03.11 тихо ()   10 км  слаб. снег  10/10 300 м 
[Sc]
-15 -17 85 -15  1031.1  -0.2  761  326           
06 03.03.11 тихо ()   >10 км  слаб. снег  10/10 600 м 
[Sc]
-14.4 -16.4 85 -14  1031.3  0.2  761  325  -16.5    0.0     
09 03.03.11 тихо ()   >10 км  {снег}  10/0 средняя 
[Ac cast]
-9.6 -14.2 69 -10  1030.5  -0.4  761  319           
12 03.03.11 150 (ЮВ) >10 км  {снег}  9/0 средняя 
[Ac cast]
-8.6 -14.5 62 -8  1029.5  -1  760  318           
15 03.03.11 160 (Ю) 10 км    4/0 верхняя 
[Ci fib]
-12.4 -15.9 75 -12  1028.7  -1.1  760  322           
18 03.03.11 160 (Ю) 10 км    ясно 
-15.7 -17 90 -18  1026.5  -2.2  758  325    -8.6  0.0     
21 03.03.11 170 (Ю) 10 км    ясно 
-17.6 -18.8 90 -18  1024.9  -1.7  757  327           
00 04.03.11 160 (Ю) 10 км  [диам. изморози 1 мм]  ясно 
-18.6 -19.8 91 -21  1021.7  -3.3  754  328           
03 04.03.11 160 (Ю) 10 км  ледяные иглы{снег} [диам. изморози 2 мм]  ясно 
-19.7 -20.9 90 -22  1019.3  -2.4  752  328           
06 04.03.11 200 (Ю) >10 км  {снег} [диам. изморози 2 мм]  9/3 1000 м средняя 
[Sc|Ac lent]
-17 -18.2 90 -17  1016.1  -3  750  324  -20.1    0.0     
09 04.03.11 190 (Ю) 10 км  слаб. снег [диам. изморози 2 мм]  10/10 300 м 
[Sc]
-14.2 -15.5 90 -16  1013.4  -2.5  748  319           
12 04.03.11 170 (Ю) 10 км  слаб. снег  10/10 600 м 
[Sc]
-11.4 -13.4 85 -13  1010.8  -2.3  746  315           
15 04.03.11 190 (Ю) 4000 м  снег  10/10 300 м 
[Sc]
-11.1 -12.4 90 -11  1009.2  -1.6  745  314           
18 04.03.11 170 (Ю) 4000 м  снег  10/10 300 м 
[Sc]
-10.2 -10.8 95 -10  1007.2  -1.8  744  312    -11.1  0.4     
21 04.03.11 190 (Ю) 10 км  слаб. снег  10/10 600 м 
[Sc]
-9.4 -10.1 95 -9  1005.2  -2  742  311           
00 05.03.11 170 (Ю) 10 км  слаб. снег  10/10 600 м 
[Sc]
-8.7 -9.4 95 -8  1003.2  -2  741  309           
03 05.03.11 170 (Ю) 10 км  в посл. час снег  10/10 600 м 
[Sc]
-8.6 -9.3 95 -8  1000.2  -3  739  308           
06 05.03.11 190 (Ю) 10 км  {снег}  10/0 средняя 
[Ac As]
-6.2 -7.7 89 -8  997.1  -2.8  737  304  -11.1       
09 05.03.11 190 (Ю) 1000 м  сильн. снег  10/10 200 м 
[Ns]
-5.1 -6.5 90 -6  994.1  -3  734  302           
12 05.03.11 170 (Ю) 1000 м  сильн. снег  10/10 200 м 
[Ns]
-5.6 -6.3 95 -7  990  -4  731  301           
15 05.03.11 180 (Ю) 1000 м  сильн. снег  10/10 200 м 
[Ns]
-5.8 -6.2 97 -8  986.8  -3.1  729  301           
18 05.03.11 190 (Ю) 4000 м  снег  10/10 200 м 
[Ns]
-4.9 -5.5 96 -6  983.4  -3.3  727  299    -5.1     
21 05.03.11 190 (Ю) 1000 м  снег  10/10 200 м 
[Ns]
-4.4 -5 95 -6  980.6  -2.7  725  297           
00 06.03.11 200 (Ю) 1000 м  снег  10/10 200 м 
[Ns]
-4.1 -4.6 96 -4  978.7  -1.9  723  296           
03 06.03.11 240 (ЮЗ) 2000 м  снег  10/10 200 м 
[Ns]
-3 -3.4 97 -5  978.7  723  295           
06 06.03.11 150 (ЮВ) 10 км  {снег}  10/0 средняя 
[As op]
-2.4 -4 89 -4  980.3  1.7  724  295  -5.8       
09 06.03.11 260 (З) 10 км    10/10 600 м 
[Sc]
-1 -4.9 75 -3  982.7  2.3  726  294           
12 06.03.11 270 (З) 10 км  слаб. снег  10/10 600 м 
[Sc]
-1.6 -3 90 -4  986.7  729  296           
15 06.03.11 280 (З) 10 км  слаб. снег  10/10 600 м 
[Sc]
-2.6 -3.3 95 -4  991.5  3.1  733  298           
18 06.03.11 320 (СЗ) 4000 м  слаб. снег  10/10 300 м 
[Sc]
-4.6 -6.2 89 -4  996.4  4.7  736  302    -1  0.9     
21 06.03.11 тихо ()   4000 м  слаб. снег  10/0 средняя 
[As op]
-5.8 -8.4 82 -6  1000.1  3.7  739  305           
00 07.03.11 320 (СЗ) 4000 м  дымка{снег}  9/5 300 м средняя 
[Frnb|As trans]
-7.6 -8.2 96 -7  1003.8  3.5  741  308           
03 07.03.11 280 (З) 4000 м  слаб. снег  10/10 600 м 
[Sc]
-6.7 -7.6 93 -6  1007.5  3.7  744  308           
06 07.03.11 290 (З) >10 км  слаб. снег  10/0 средняя 
[As op]
-5.8 -7.3 89 -5  1011.6  4.1  747  308  -7.6       
09 07.03.11 310 (СЗ) >10 км  {снег}  8/0 средняя, верхняя 
[Ac cast|Ci fib]
-3.8 -8.3 71 -3  1014.8  3.2  750  307           
12 07.03.11 320 (СЗ) >10 км  {снег}  9/9 600 м 
[Sc]
-2.6 -9.1 61 -4  1017.2  2.4  752  307           
15 07.03.11 310 (СЗ) 10 км    10/8 600 м средняя 
[Sc|Ac cast]
-3.3 -7.6 72 -3  1019.2  753  308           
18 07.03.11 тихо ()   10 км    3/0 средняя 
[Ac cast]
-6.4 -7.2 94 -6  1021.2  1.8  754  312    -2.2  0.3     
21 07.03.11 330 (СЗ) 10 км  слаб. снег  9/9 600 м 
[Sc]
-6 -6.4 97 -6  1022  0.9  755  312           
00 08.03.11 тихо ()   10 км  слаб. снег  9/9 600 м 
[Sc]
-6.6 -7.1 96 -7  1022.9  0.7  756  313           
03 08.03.11 тихо ()   10 км  слаб. снег  10/10 600 м 
[Sc]
-7.1 -7.6 96 -7  1023.7  0.8  756  314           
06 08.03.11 270 (З) >10 км  слаб. снег  10/0 средняя 
[As op]
-7 -7.9 93 -7  1024.7  757  314  -8.1    0.2     
09 08.03.11 300 (СЗ) >10 км  {снег}  3/3 1000 м 
[Sc]
-3.2 -7.9 70 -3  1025  0.5  757  310           
12 08.03.11 320 (СЗ) >10 км  слаб. снег  8/6 1000 м средняя 
[Sc|Ac cast]
-3.2 -7.1 74 -4  1025.4  0.4  758  310           
15 08.03.11 290 (З) 10 км  слаб. снег  3/3 600 м 
[Sc]
-5.4 -9.6 72 -7  1025.9  0.4  758  313           
18 08.03.11 260 (З) 10 км    1/0 верхняя 
[Ci sp]
-8.5 -8.7 98 -8  1027.8  1.6  759  317    -5.6  0.0     
21 08.03.11 250 (З) 10 км    ясно 
-9.6 -13.2 75 -9  1027.8  759  318           
00 09.03.11 260 (З) 10 км    ясно 
-10.1 -12.9 80 -10  1028.3  0.5  759  319           
03 09.03.11 тихо ()   10 км    ясно 
-12.1 -14.1 85 -12  1028.9  0.4  760  322           
06 09.03.11 тихо ()   >10 км    ясно 
-9.3 -13.3 73 -9  1029.1  0.4  760  318  -12.3         
09 09.03.11 230 (ЮЗ) >10 км    ясно 
-4.2 -12.1 54 -5  1029.1  0.3  760  312           
12 09.03.11 260 (З) >10 км    3/0 средняя 
[Ac cast]
-3.1 -11.8 51 -4  1028.9  -0.2  760  311           
15 09.03.11 240 (ЮЗ) 10 км    10/10 600 м 
[Sc]
-4.2 -11.1 58 -5  1028.7  -0.2  760  312           
18 09.03.11 200 (Ю) 10 км  слаб. снег  10/10 300 м 
[Sc]
-3.9 -9.7 64 -3  1028.9  0.2  760  312    -2.6       
21 09.03.11 тихо ()   10 км  {снег}  10/10 600 м 
[Sc]
-4.4 -8.3 74 -4  1029.5  0.5  761  312           
00 10.03.11 тихо ()   10 км  {снег}  10/10 600 м 
[Sc]
-4.1 -7.9 75 -4  1030.2  0.8  761  312           
03 10.03.11 тихо ()   10 км    9/9 600 м 
[Sc]
-4.1 -7.9 75 -4  1030.7  0.5  761  312           
06 10.03.11 130 (ЮВ) >10 км    8/8 600 м 
[Sc]
-3.1 -7.7 71 -3  1031.6  0.9  762  311  -4.7    0.0     
09 10.03.11 210 (ЮЗ) >10 км    8/5 600 м средняя 
[Sc|Ac und]
+0.3 -8.5 52 +1  1032  0.6  763  308           
12 10.03.11 250 (З) >10 км    9/0 средняя 
[Ac und]
+0.5 -7.7 54 1032.5  0.5  763  308           
15 10.03.11 210 (ЮЗ) >10 км    ясно 
-3 -11.1 53 -3  1032.7  763  312           
18 10.03.11 160 (Ю) 10 км    ясно 
-6.1 -12.5 60 -6  1032.6  -0.2  763  316    +1.5       
21 10.03.11 160 (Ю) 10 км    ясно 
-7.8 -13.4 64 -8  1032.3  -0.4  763  318           
00 11.03.11 150 (ЮВ) 10 км    ясно 
-10.3 -13.9 75 -10  1033.5  0.9  763  321           
03 11.03.11 150 (ЮВ) 10 км    ясно 
-11.7 -14.5 80 -12  1034  0.5  764  323           
06 11.03.11 160 (Ю) >10 км    ясно 
-10 -14.2 71 -12  1034.5  0.6  764  321  -12.3         
09 11.03.11 170 (Ю) >10 км    ясно 
-5.7 -13.4 55 -7  1034.3  764  316           
12 11.03.11 170 (Ю) >10 км    ясно 
-4.2 -12.1 54 -5  1033.3  -1  763  313           
15 11.03.11 тихо ()   >10 км    ясно 
-5 -11.3 61 -5  1031.1  -2.1  762  314           
18 11.03.11 140 (ЮВ) 10 км    ясно 
-6.1 -10.5 71 -9  1029.7  -1.4  761  315    -3.7       
21 11.03.11 160 (Ю) 10 км    10/0 средняя 
[As op]
-6.8 -11 72 -9  1027.6  -2.1  759  315           
00 12.03.11 150 (ЮВ) 10 км    10/0 средняя 
[As op]
-6.5 -11.1 70 -8  1025.2  -2.4  757  314           
03 12.03.11 100 (В) 10 км    10/0 средняя 
[Ac As]
-6.9 -11.3 71 -8  1023  -2.2  756  313           
06 12.03.11 140 (ЮВ) 10 км  слаб. снег  10/0 средняя 
[As op]
-5.9 -8.2 84 -7  1021.5  -1.3  755  312  -7         
09 12.03.11 150 (ЮВ) 10 км  слаб. снег  9/9 600 м 
[Sc]
-4.6 -7.3 82 -6  1019.6  -1.9  753  309           
12 12.03.11 170 (Ю) 10 км  слаб. снег  10/10 600 м 
[Sc]
-3.8 -7.5 75 -3  1018.3  -1.2  752  308           
15 12.03.11 160 (Ю) >10 км  {снег}  3/0 средняя 
[Ac lent]
-5.7 -7.5 87 -5  1017.3  -1.1  752  310           
18 12.03.11 тихо ()   0200 м  туман{снег} [диам. изморози 1 мм]  10/0 средняя 
[As trans]
-8 -8.6 96 -8  1017.6  0.2  752  313    -3.6  0.2     
21 12.03.11 170 (Ю) 10 км  {туман} [диам. изморози 2 мм]  ясно 
-10.5 -11.1 95 -10  1017.9  0.1  752  316           
00 13.03.11 тихо ()   10 км  {туман} [диам. изморози 3 мм]  ясно 
-11.9 -12.5 95 -12  1018.3  0.3  752  318           
03 13.03.11 тихо ()   10 км  [диам. изморози 4 мм]  10/0 верхняя 
[Cs]
-13.8 -14.4 95 -14  1019.3  0.9  753  321           
06 13.03.11 тихо ()   10 км  [диам. изморози 5 мм]  10/0 верхняя 
[Ci sp]
-11.3 -11.9 95 -11  1021.2  754  318  -14.2         
09 13.03.11 тихо ()   >10 км  [диам. изморози 5 мм]  10/0 верхняя 
[Ci sp]
-6 -10.4 71 -6  1021.7  0.9  755  312           
12 13.03.11 340 (С) 10 км  слаб. снег  9/0 средняя 
[As trans]
-5.3 -10.3 68 -5  1022.2  0.5  755  311           
15 13.03.11 160 (Ю) 4000 м  слаб. снег  10/0 средняя 
[As op]
-6.8 -8.8 86 -6  1023.8  1.4  756  313           
18 13.03.11 260 (З) 10 км  в посл. час снег  10/0 верхняя 
[Ci fib]
-8.2 -8.8 95 -8  1024.4  0.6  757  315    -5  0.6     
21 13.03.11 320 (СЗ) 10 км    ясно 
-10.1 -10.7 95 -10  1025.4  0.8  757  318           
00 14.03.11 тихо ()   4000 м  [диам. изморози 2 мм]  ясно 
-11.7 -12.3 95 -12  1027.1  1.6  758  320           
03 14.03.11 тихо ()   0200 м  туман [диам. изморози 2 мм]  ясно 
-15.5 -16.1 95 -16  1028.6  1.2  759  326           
06 14.03.11 тихо ()   4000 м  дымка{туман} [диам. изморози 4 мм]  ясно 
-12.8 -14.1 90 -13  1029.7  1.2  760  323  -16.3    0.0     
09 14.03.11 тихо ()   >10 км  [диам. изморози 4 мм]  ясно 
-7.4 -10.4 79 -7  1029.8  0.5  761  316           
12 14.03.11 260 (З) >10 км    ясно 
-0.2 -7.1 60 1028.6  -0.8  760  307           
15 14.03.11 160 (Ю) >10 км    ясно 
-4.9 -9.8 68 -6  1028.3  -0.6  760  313           
18 14.03.11 160 (Ю) 10 км    ясно 
-7.7 -9.5 87 -9  1027.7  -0.6  759  316    +0.7       
21 14.03.11 160 (Ю) 10 км    8/0 средняя 
[Ac cast]
-7.2 -8.9 88 -9  1024.8  -2.9  757  314           
00 15.03.11 160 (Ю) 10 км    10/10 600 м 
[Sc]
-6 -8.3 84 -7  1021.8  -2.8  755  312           
03 15.03.11 160 (Ю) 10 км    10/0 средняя 
[As op]
-4 -5.9 87 -5  1018.5  -3.2  752  308           
06 15.03.11 160 (Ю) 10 км  слаб. снег  10/0 средняя 
[As op]
-1.6 -3 90 -3  1015.9  -2.4  751  305  -7.9         
09 15.03.11 180 (Ю) 1000 м  сильн. снег  10/0 средняя 
[As op]
+0.5 +0.2 98 +1  1012.7  -3.1  748  301           
12 15.03.11 190 (Ю) 1000 м  сильн. снег  10/0 средняя 
[As op]
+0.9 +0.6 98 +2  1010.6  -2.1  747  300           
15 15.03.11 260 (З) 10 км  слаб. дождь{снег}  10/0 средняя 
[As op]
+1.5 +1.2 98 +2  1009.4  -1  746  299           
18 15.03.11 250 (З) 10 км  слаб. дождь{снег}  10/0 средняя 
[As op]
+1.2 +0.7 96 +1  1009.7  0.1  746  299    +1.5     
21 15.03.11 290 (З) 4000 м  дождь со снегом  10/0 средняя 
[As op]
+0.4 -0.2 96 +1  1009.8  0.1  746  300           
00 16.03.11 290 (З) 10 км  {снег, дождь}  8/0 средняя 
[Ac cast]
-0.7 -1.9 92 -2  1011.5  1.6  747  302           
03 16.03.11 290 (З) 10 км    10/10 600 м 
[Sc]
-1.7 -3.1 90 -1  1013.3  1.8  749  304           
06 16.03.11 290 (З) 4000 м  слаб. снег  10/3 300 м средняя 
[Frnb|As op]
-1 -2 93 1014.2  0.9  749  303  -1.7       
09 16.03.11 290 (З) 10 км  слаб. снег  10/10 300 м 
[Sc]
+0 -2.3 84 +1  1015.7  1.6  751  303           
12 16.03.11 110 (В) >10 км  {ливн. осадки, снег}  10/10 200 м 
[Frnb]
+0.4 -2.6 80 +1  1016.7  751  303           
15 16.03.11 070 (В) 10 км  слаб. снег  10/5 200 м средняя 
[Frnb|As op]
-0.4 -1.9 90 -1  1017.6  0.8  752  304           
18 16.03.11 080 (В) 10 км  {снег}  10/3 300 м средняя 
[Sc|Ac As]
-0.6 -2.4 88 -1  1018.3  0.6  752  304    +0.9  0.4     
21 16.03.11 070 (В) 10 км  слаб. снег  10/0 средняя 
[As op]
-1 -2.3 91 -3  1018.4  0.1  752  305           
00 17.03.11 070 (В) 4000 м  снег  10/10 200 м 
[Ns]
+0 -0.6 96 -1  1017.5  -0.8  752  303           
03 17.03.11 080 (В) 4000 м  слаб. снег  10/10 200 м 
[Ns]
+0.2 -0.6 94 -2  1018.5  753  303           
06 17.03.11 090 (В) 4000 м  слаб. снег  10/10 200 м 
[Ns]
+0.9 -0.5 90 -1  1021.4  2.9  755  303  -1.3       
09 17.03.11 090 (В) 4000 м  слаб. снег  10/10 200 м 
[Frnb|Ns]
+1.2 +0.1 92 1023.1  1.6  756  303           
12 17.03.11 090 (В) 4000 м  слаб. снег  10/10 200 м 
[Frnb|Ns]
+1.1 +0 92 1024.4  1.3  757  304           
15 17.03.11 090 (В) 1000 м  сильн. снег  10/10 200 м 
[Ns]
+0.5 -0.1 96 -1  1025.5  1.1  758  305           
18 17.03.11 110 (В) 10 км  слаб. снег  10/10 300 м 
[Sc]
+0.4 -0.4 94 -1  1026.1  0.6  758  305    +1.2     
21 17.03.11 110 (В) 10 км  слаб. снег  10/10 600 м 
[Sc]
+0.6 -0.2 94 -1  1027.5  1.4  759  305           
00 18.03.11 110 (В) 10 км  слаб. снег  10/10 600 м 
[Sc]
+0.6 -0.2 94 -1  1028.4  0.8  760  306           
03 18.03.11 110 (В) 10 км  слаб. снег  10/10 600 м 
[Sc]
+0.6 -0.2 94 -1  1028.6  0.2  760  306           
06 18.03.11 140 (ЮВ) 10 км  слаб. снег  10/10 600 м 
[Sc]
+0.6 -0.5 92 -1  1029.3  0.7  761  306  +0.4       
09 18.03.11 120 (ЮВ) 10 км  слаб. снег  10/10 600 м 
[Sc]
+1.3 -0.4 88 -1  1029.8  0.5  761  305           
12 18.03.11 110 (В) 2000 м  снег  10/10 300 м 
[Ns]
+0.7 +0.2 97 -2  1030.3  0.5  761  306           
15 18.03.11 120 (ЮВ) 10 км  {снег}  10/10 600 м 
[Sc]
+0.7 -1.9 83 -1  1030.5  0.2  761  306           
18 18.03.11 100 (В) 5{11}  10 км  {снег}  9/0 средняя 
[Ac trans]
+0.2 -6.9 59 -3  1029.7  -0.8  761  307    +1.3     
21 18.03.11 100 (В) 3{11}  10 км    9/0 средняя 
[As trans]
+0.3 -8.5 52 -1  1028.5  -1.2  760  307           
00 19.03.11 100 (В) 10 км    10/10 600 м 
[Sc]
+0.3 -9.4 48 -2  1026.9  -1.5  759  306           
03 19.03.11 110 (В) 3{10}  10 км    10/10 600 м 
[Sc]
-0.7 -7.1 62 -3  1026.1  -0.9  758  307           
06 19.03.11 120 (ЮВ) 3{12}  4000 м  слаб. снег  10/0 средняя 
[As op]
-0.8 -4 79 -3  1026.2  0.1  758  307  -0.8         
09 19.03.11 140 (ЮВ) 5{11}  2000 м  снег  10/0 средняя 
[As op]
-1.8 -3.3 90 -5  1026.7  0.5  759  308           
12 19.03.11 140 (ЮВ) 4000 м  слаб. снег  10/10 600 м 
[Ns]
-2 -4.1 86 -4  1026.8  0.1  759  308           
15 19.03.11 140 (ЮВ) 10 км  {снег}  9/9 600 м 
[Sc]
-2.6 -5.2 82 -5  1027.2  0.3  759  309           
18 19.03.11 140 (ЮВ) 10 км  {снег}  ясно 
-3.8 -6.3 83 -6  1028.1  0.8  760  311    +0.3     
21 19.03.11 160 (Ю) 10 км    1/0 верхняя 
[Ci fib]
-5 -7.4 83 -7  1028.7  0.5  760  313           
00 20.03.11 160 (Ю) 10 км    1/0 верхняя 
[Ci fib]
-5.3 -7.1 87 -8  1029.1  0.4  760  313           
03 20.03.11 170 (Ю) 10 км    1/0 верхняя 
[Ci fib]
-6 -7.5 89 -9  1029  -0.1  760  314           
06 20.03.11 160 (Ю) >10 км    10/0 
-4.4 -7.1 81 -6  1029.3  0.4  760  312  -6.2         
09 20.03.11 210 (ЮЗ) >10 км    9/9 600 м 
[Sc]
-2.1 -4.6 83 -4  1029.1  -0.1  760  309           
12 20.03.11 150 (ЮВ) >10 км    9/9 300 м 
[Sc]
-1 -3.9 81 -3  1029.8  0.7  761  308           
15 20.03.11 180 (Ю) >10 км    3/3 600 м 
[Sc diur, vesp]
-2.6 -4.2 89 -5  1030  0.1  761  310           
18 20.03.11 190 (Ю) 10 км    10/10 300 м 
[Sc]
-3.3 -4.7 90 -3  1031  762  311    -0.7       
21 20.03.11 170 (Ю) 10 км  слаб. снег  10/10 300 м 
[Sc]
-3.6 -4.7 92 -3  1031.4  0.4  762  312           
00 21.03.11 160 (Ю) 10 км  слаб. снег  10/10 300 м 
[Sc]
-4.2 -5.1 93 -4  1032.2  0.8  763  313           
03 21.03.11 200 (Ю) 10 км  слаб. снег  10/10 300 м 
[St]
-4.4 -5 95 -4  1032.8  0.6  763  313           
06 21.03.11 140 (ЮВ) 10 км  {снег}  10/10 300 м 
[St]
-3.9 -5.1 91 -3  1034  1.1  764  313  -4.4    0.0     
09 21.03.11 100 (В) >10 км    4/4 600 м 
[Sc]
-1.5 -5.9 72 -1  1033.5  -0.3  764  310           
12 21.03.11 070 (В) >10 км    3/0 средняя 
[Ac cast]
-0.4 -5.9 66 -1  1032.2  -1.2  763  308           
15 21.03.11 тихо ()   10 км    10/10 1000 м 
[Sc]
-0.8 -5.3 72 -1  1031.3  -1  762  309           
18 21.03.11 тихо ()   10 км    10/10 1000 м 
[Sc]
-1.2 -4.8 77 -1  1030.8  -0.5  762  309    -0.4  0.0     
21 21.03.11 120 (ЮВ) 10 км  слаб. снег  10/10 600 м 
[Sc]
-2.1 -3.3 91 -3  1029.5  -1.3  761  309           
00 22.03.11 тихо ()   4000 м  снег  10/10 300 м 
[Ns]
-2.3 -2.9 96 -2  1028.1  -1.4  760  309           
03 22.03.11 тихо ()   10 км  слаб. снег  10/10 300 м 
[Ns]
-2.4 -3 96 -2  1026.9  -1.1  759  309           
06 22.03.11 170 (Ю) 10 км  слаб. снег  10/10 600 м 
[Sc]
-1.7 -3.1 90 -1  1025.8  -1.1  758  308  -2.4       
09 22.03.11 160 (Ю) 10 км  слаб. снег  10/10 600 м 
[Sc]
-0.6 -3.4 81 1024.7  -1.1  757  306           
12 22.03.11 170 (Ю) 10 км  слаб. снег  10/10 600 м 
[Sc]
-0.7 -2.9 85 1022.3  -2.3  755  306           
15 22.03.11 150 (ЮВ) >10 км  {снег}  10/9 600 м средняя 
[Sc|Ac und]
-1.4 -2.8 90 -1  1020.5  -1.8  754  306           
18 22.03.11 180 (Ю) 10 км  {снег}  10/10 600 м 
[Sc]
-1.8 -2.9 92 -1  1017.6  -2.9  752  305    -0.6  0.3     
21 22.03.11 тихо ()   10 км    5/0 средняя 
[Ac cast]
-4 -4.5 96 -4  1015.9  -1.8  751  307           
00 23.03.11 160 (Ю) 10 км    ясно 
-5.9 -7 92 -7  1013.5  -2.5  749  309           
03 23.03.11 190 (Ю) 10 км    3/0 средняя 
[Ac cast]
-5.6 -7.4 87 -5  1010.2  -3.2  746  308           
06 23.03.11 180 (Ю) >10 км    10/0 средняя 
[As op]
-2.8 -6.9 73 -4  1007.1  -2.9  744  304  -6.5         
09 23.03.11 230 (ЮЗ) 1000 м  сильн. снег  10/10 600 м 
[Ns]
-1.8 -2.6 94 -1  1005  -2  743  301           
12 23.03.11 210 (ЮЗ) 1000 м  сильн. снег  10/10 300 м 
[Ns]
-0.4 -1 96 1002.8  -2.1  741  299           
15 23.03.11 тихо ()   2000 м  снег  10/10 600 м 
[Ns]
-0.2 -0.5 98 -0  1001.1  -1.6  740  298           
18 23.03.11 180 (Ю) 2000 м  снег  10/10 300 м 
[Ns]
-0.4 -0.7 98 1000.1  -1  739  298    -0.2     
21 23.03.11 тихо ()   4000 м  слаб. снег  10/10 300 м 
[Ns]
-0.4 -1 96 -0  998.2  -1.9  738  298           
00 24.03.11 160 (Ю) 4000 м  слаб. снег  10/10 300 м 
[Ns]
-0.8 -1.4 96 995.1  -3.1  735  297           
03 24.03.11 150 (ЮВ) 4000 м  слаб. снег  10/10 300 м 
[Ns]
-1.2 -1.8 96 -1    2.8  733  297         
06 24.03.11 160 (Ю) 2000 м  снег  10/10 300 м 
[Ns]
-0.6 -1.2 96 989.9  -2.1  731  295  -1.4       
09 24.03.11 тихо ()   10 км  слаб. снег  10/10 300 м 
[Frnb]
+0.9 -1.1 87 +1  986.3  -3.4  729  293           
12 24.03.11 290 (З) 1000 м  сильн. снег  10/8 300 м средняя 
[Frnb|As op]
+0.2 -0.6 94 -1  985.1  -1.3  728  293           
15 24.03.11 330 (СЗ) 10 км  в посл. час морось{снег}  10/8 1000 м средняя 
[Sc diur, vesp|As op]
-0.1 -2.5 84 -1  984.7  -0.4  728  294           
18 24.03.11 300 (СЗ) 10 км  {снег}  9/9 600 м 
[Sc]
-1.4 -3.7 84 -2  984.4  -0.4  727  295    +0.9     
21 24.03.11 280 (З) 10 км  {снег}  9/9 600 м 
[Sc]
-1.8 -2.9 92 -1  982.1  -2.3  726  295           
00 25.03.11 тихо ()   10 км  слаб. снег  10/10 600 м 
[Sc]
-2 -3.5 90 -2  980.6  -1.4  725  294           
03 25.03.11 030 (СВ) 4000 м  слаб. снег  10/10 300 м 
[Ns]
-3.2 -3.9 95 -3  979.8  -0.9  724  296           
06 25.03.11 тихо ()   1000 м  сильн. снег  10/10 200 м 
[Ns]
-2.4 -3.6 91 -2  979  -0.7  723  294  -3.2    0.7     
09 25.03.11 280 (З) 4000 м  слаб. снег  10/10 200 м 
[Ns]
-2.8 -4.8 86 -5  979.6  0.5  724  295           
12 25.03.11 290 (З) 10 км  в посл. час снег  10/10 300 м 
[Sc]
-4.6 -8.1 76 -8  981.8  2.1  725  298           
15 25.03.11 270 (З) 10 км  слаб. снег  10/10 200 м 
[Frnb|Ns]
-5.1 -7.6 83 -7  983.6  1.7  727  299           
18 25.03.11 280 (З) 10 км  слаб. снег  10/10 200 м 
[Frnb|Ns]
-6 -8.3 84 -9  985.8  2.2  728  301    -0.8     
21 25.03.11 300 (СЗ) 4000 м  снег  10/10 300 м 
[Frnb|Ns]
-6.1 -8 86 -9  986.7  0.9  729  301           
00 26.03.11 280 (З) 10 км  слаб. снег  10/10 300 м 
[Frnb|Ns]
-6.6 -9.4 80 -10  988.7  1.8  730  302           
03 26.03.11 290 (З) 10 км  слаб. снег  10/10 300 м 
[Frnb|Ns]
-7.7 -10.3 82 -10  991.1  2.4  732  305           
06 26.03.11 300 (СЗ) 4{11}  >10 км  слаб. снег  10/8 300 м средняя 
[Frnb|As op]
-6.4 -8.4 86 -10  994.7  3.5  735  304  -8       
09 26.03.11 290 (З) 4{11}  >10 км  позёмок{снег}  4/3 600 м верхняя 
[Cu med, cong|Ci fib]
-4.9 -11.2 61 -8  998.5  3.9  738  304           
12 26.03.11 300 (СЗ) >10 км  {снег}  3/0 верхняя 
[Ci fib]
-3.6 -15.1 41 -6  1000  1.6  739  303           
15 26.03.11 тихо ()   >10 км    10/0 средняя 
[Ac As]
-4.8 -16.1 41 -5  1000.4  0.3  739  304           
18 26.03.11 200 (Ю) 10 км  слаб. снег  10/0 средняя 
[As op]
-5 -13.4 52 -5  1000.5  0.1  739  305    -3.6  0.0     
21 26.03.11 260 (З) 4000 м  слаб. снег  9/8 600 м средняя 
[Sc|As trans]
-6.6 -8.2 88 -8  1000  -0.6  739  306           
00 27.03.11 270 (З) 10 км  {снег}  ясно 
-7.8 -9.6 87 -9  1001.1  1.1  740  308           
03 27.03.11 270 (З) 10 км    ясно 
-9.9 -11.6 87 -12  1003.8  2.5  741  311           
06 27.03.11 260 (З) >10 км    1/0 средняя 
[Ac und]
-7.8 -13.9 61 -9  1006.3  2.6  743  310    -10.1  0.7     
09 27.03.11 250 (З) >10 км    9/9 600 м 
[Sc]
-7 -11.7 69 -11  1008.5  2.1  745  309           
12 27.03.11 270 (З) 4-13{13}  >10 км    8/8 600 м 
[Cu med, cong]
-5.1 -13 54 -8  1009.8  1.4  746  307           
15 27.03.11 300 (СЗ) 4-12{12}  >10 км  позёмок  3/3 600 м 
[Cu med, cong]
-6.2 -11.6 65 -10  1012.2  2.4  748  309           
18 27.03.11 250 (З) 10 км    3/0 средняя 
[Ac cuf]
-8 -12.1 72 -10  1016.4  751  313    -5.1       
21 27.03.11 200 (Ю) 10 км    ясно 
-9.5 -15.2 63 -9  1018.9  2.3  752  315           
00 28.03.11 тихо ()   10 км    9/9 600 м 
[Sc]
-11.1 -13.9 80 -11  1020.2  1.2  753  318           
03 28.03.11 тихо ()   >10 км    3/3 600 м 
[Sc]
-10.1 -12.9 80 -10  1021.7  1.6  755  317           
06 28.03.11 тихо ()   >10 км    ясно 
-4.5 -11 60 -5  1022  0.6  755  310  -11.4         
09 28.03.11 240 (ЮЗ) >10 км    ясно 
-0.7 -11.2 45 -3  1023.1  1.2  756  306           
12 28.03.11 250 (З) 5{10}  >10 км    4/0 верхняя 
[Ci fib]
+0.3 -11.4 41 -3  1022.6  -0.4  756  305           
15 28.03.11 200 (Ю) 2{10}  >10 км    3/0 верхняя 
[Ci fib]
-1.2 -11.1 47 -2  1022  -0.6  755  307           
18 28.03.11 180 (Ю) 10 км    ясно 
-4.8 -12.5 55 -4  1023.2  0.9  756  311    +0.4       
21 28.03.11 170 (Ю) 10 км    ясно 
-7.2 -11.5 71 -7  1023  -0.3  756  314           
00 29.03.11 180 (Ю) 10 км    ясно 
-7.9 -13 67 -9  1022.8  -0.2  755  315           
03 29.03.11 140 (ЮВ) >10 км    9/0 верхняя 
[Ci fib]
-8 -13.7 64 -10  1022.2  -0.6  755  315           
06 29.03.11 180 (Ю) >10 км    10/0 верхняя 
[Cs]
-4.2 -12.6 52 -5  1020.9  -1  754  310  -8.1         
09 29.03.11 190 (Ю) 3{10}  >10 км    9/0 средняя 
[Ac trans]
-2.2 -11.3 50 -4  1019.6  -1.2  753  307           
12 29.03.11 190 (Ю) 4{10}  10 км    10/0 средняя 
[Ac As]
-1.7 -9.5 55 -4  1017.6  -2  752  306           
15 29.03.11 180 (Ю) 3{11}  2000 м  снег  10/10 200 м 
[Frnb|Ns]
-3.4 -5.2 87 -6  1015.8  -1.9  750  307           
18 29.03.11 180 (Ю) 10 км  слаб. снег  10/10 300 м 
[Frnb]
-4.4 -7.9 76 -6  1015.5  -0.4  750  308    -2.2  0.0     
21 29.03.11 200 (Ю) 10 км  слаб. снег  10/10 300 м 
[Ns]
-4.9 -6.6 88 -6  1014.6  -0.9  749  308           
00 30.03.11 180 (Ю) 10 км  слаб. снег  10/10 300 м 
[Frnb|Ns]
-4.7 -5.6 94 -4  1014.1  -0.5  749  308           
03 30.03.11 250 (З) >10 км  {снег}  ясно 
-4.4 -5.6 91 -6  1014.8  0.8  750  308           
06 30.03.11 280 (З) >10 км  {снег}  ясно 
-2.4 -6.8 72 -3  1016.3  1.6  751  306  -5.1    0.9     
09 30.03.11 280 (З) >10 км    10/0 верхняя 
[Ci]
+0.6 -11.6 39 1016.8  0.7  751  303           
12 30.03.11 270 (З) >10 км    10/0 верхняя 
[Cs]
+1.8 -13.5 31 1016.7  751  302           
15 30.03.11 180 (Ю) >10 км    10/0 средняя, верхняя 
[Ac lent|Ci fib]
-0.6 -12.7 39 1016.2  -0.7  751  304           
18 30.03.11 150 (ЮВ) 10 км    1/0 средняя 
[Ac lent]
-3.3 -8 70 -4  1015.5  -0.9  750  307    +1.8       
21 30.03.11 150 (ЮВ) 10 км    10/10 600 м 
[Sc]
-3.8 -8.3 71 -6  1012.8  -2.7  748  307           
00 31.03.11 160 (Ю) 4000 м  слаб. снег  10/10 300 м 
[Ns]
-2.8 -3.5 95 -5  1009.5  -3.2  746  304           
03 31.03.11 240 (ЮЗ) 10 км  в посл. час снег  8/8 600 м 
[Sc]
-0.1 -1.8 88 -3  1008.2  -1.1  745  300           
06 31.03.11 260 (З) >10 км  {снег}  9/8 600 м средняя 
[Sc|Ac cast]
+0.5 -4.2 71 -1  1009.6  1.4  746  301  -4.3       
09 31.03.11 280 (З) 4{10}  >10 км    9/9 600 м 
[Sc]
+0.7 -6.6 58 -2  1011.7  2.1  748  301           
12 31.03.11 270 (З) 4{11}  >10 км    9/9 600 м 
[Sc]
+0.6 -4.8 67 -2  1012.7  748  301           
15 31.03.11 280 (З) 3{10}  >10 км  {ливн. осадки}  10/10 600 м 
[Sc diur, vesp]
+0.2 -4.5 71 -2  1014.6  1.9  750  302           
18 31.03.11 280 (З) 10 км  {ливн. осадки}  9/9 600 м 
[Sc]
-1.1 -6.5 67 -2  1018.2  3.4  752  305    +0.7  0.0     
21 31.03.11 290 (З) 10 км    1/1 600 м 
[Sc]
-2.7 -4.7 86 -4  1020.6  2.3  754  307           
00 01.04.11 300 (СЗ) 10 км    9/9 600 м 
[Sc]
-2.7 -4.7 86 -4  1022.5  1.9  755  308           
03 01.04.11 290 (З) >10 км    3/3 600 м 
[Sc]
-3.5 -4.9 90 -5  1025.3  2.7  758  310           
Время (UTC), дата Ветер
(°,м/с) 
Видим.   Явления Облачность Т
(°С)
Тd
(°С)
f(%) Тe
(°С)
Pmin
(гПа)
dP
(гПа)
Po
(мм)
O2
(г/м3)
Тmin Tmax R s Состояние
почвы